GFSNE_sfc_30mbdewp_237.txt.gz
Dewpoint
62 56 53 50 49 46 42 38 35 30 32 38 37 37 38 38 39 38 39 40 37 39 38 38 38 38 38 39 39 40 40 41 42 43 43 43 43 43
57 55 50 48 45 42 41 38 37 36 33 32 34 36 38 39 38 38 39 38 38 37 38 38 38 38 39 39 38 38 39 39 40 40 42 43 44 44
53 50 47 45 43 42 42 39 38 37 35 35 36 37 39 39 39 39 38 37 36 38 38 38 39 38 39 39 39 38 38 39 38 38 39 40 43 45
48 47 44 42 41 40 40 39 37 37 36 35 37 37 37 38 38 39 38 36 38 37 37 38 38 38 39 39 38 37 37 37 37 38 39 40 40 43
47 45 43 41 41 39 38 38 38 37 37 37 37 38 38 39 39 38 38 38 37 37 37 37 37 38 39 38 38 37 36 36 37 38 40 40 40 41
45 43 41 40 40 40 39 39 38 38 38 37 37 37 38 38 38 37 36 37 37 38 38 38 38 38 38 37 37 35 35 36 37 38 40 40 40 41
42 42 42 39 39 39 38 38 38 38 38 37 37 37 35 36 35 36 35 35 36 39 38 38 37 38 38 37 35 34 35 35 36 38 40 41 40 41
41 40 38 36 35 34 35 34 36 38 37 37 37 36 34 35 35 35 36 35 33 38 38 37 38 38 37 36 34 34 34 35 36 37 39 40 41 41
39 38 36 36 37 35 32 32 31 30 31 34 36 35 34 35 36 35 35 35 33 36 38 34 39 36 37 36 35 33 33 34 35 38 40 40 40 40
38 38 35 36 36 35 33 33 34 35 34 32 33 34 36 36 36 35 35 35 35 38 36 33 35 34 36 36 34 32 32 33 34 35 39 42 42 42
40 38 38 37 36 35 36 37 36 33 32 31 32 32 33 35 34 34 32 30 30 33 32 32 34 34 35 35 35 32 31 32 33 34 38 39 40 40
39 38 37 37 33 33 36 34 31 32 32 33 35 34 35 35 32 33 33 30 29 31 31 30 32 33 31 36 34 34 32 31 32 33 34 38 39 38
37 37 36 31 31 30 34 36 33 33 31 33 34 34 35 35 34 34 32 32 30 30 32 31 31 31 32 32 35 34 32 31 31 31 33 33 37 36
36 37 34 31 30 29 33 30 29 32 33 33 33 33 32 32 32 34 32 33 33 31 32 32 30 31 31 31 30 32 33 32 32 31 31 32 33 33
37 35 32 30 29 31 29 29 30 34 33 32 31 31 32 33 33 34 35 35 34 33 31 30 32 33 33 31 31 30 31 31 31 31 31 30 30 31
33 31 31 31 32 31 29 32 34 33 32 32 31 31 33 31 31 31 29 33 31 31 30 30 30 31 31 31 30 29 29 28 31 31 30 30 31 31
31 31 31 31 30 31 32 32 32 30 31 30 30 30 30 30 30 30 29 28 28 27 28 29 30 30 29 30 28 30 29 28 29 29 28 26 27 29
31 31 31 31 31 31 31 30 30 30 29 29 29 29 29 28 28 28 28 27 26 26 26 28 29 31 30 28 29 29 29 28 28 28 28 24 23 26
32 31 32 32 31 30 30 30 30 29 29 29 28 29 28 27 27 27 28 26 25 26 25 27 28 29 27 23 27 30 28 28 27 25 25 24 22 24
32 32 31 31 30 30 29 29 29 29 28 29 30 30 30 28 28 26 26 26 25 23 24 24 25 26 26 24 23 26 31 26 24 23 22 24 25 26
32 31 31 30 30 29 30 31 31 31 31 30 29 29 31 27 27 27 25 24 24 23 22 22 25 26 27 26 23 23 26 29 28 25 25 22 21 21
31 30 30 29 29 31 31 32 30 30 30 30 29 30 31 29 27 26 27 25 23 23 24 26 28 28 23 22 22 23 24 27 28 29 29 28 25 21
31 30 30 31 31 31 29 29 28 29 29 29 29 29 29 29 27 27 26 24 23 24 24 25 25 25 24 23 22 24 25 25 25 23 24 26 26 25

GFSNE_sfc_30mbdewp_240.txt.gz
Dewpoint
65 65 61 52 52 52 48 48 46 39 37 44 42 41 40 41 39 40 41 42 38 39 38 38 39 39 39 40 39 39 39 38 39 40 41 41 42 43
65 60 55 53 51 47 43 40 39 37 35 39 39 42 41 41 40 40 41 40 39 38 38 38 39 39 39 39 40 39 38 38 39 39 40 41 41 42
59 56 53 50 47 46 42 41 40 39 37 39 38 40 40 40 40 41 41 39 38 39 38 37 38 39 39 40 40 38 38 37 36 38 39 41 41 42
57 53 50 47 45 44 42 41 41 40 38 37 39 39 39 40 40 40 40 39 39 38 38 38 38 39 39 39 38 38 37 37 37 37 37 39 40 41
55 51 48 46 43 43 41 41 40 39 39 39 39 40 40 40 39 38 38 37 38 38 37 38 38 39 38 38 38 36 36 36 37 37 37 37 38 39
52 50 47 45 42 42 41 42 41 39 39 39 38 39 38 38 37 36 36 36 36 36 38 38 39 39 39 38 36 35 35 36 36 37 37 38 38 39
50 48 47 45 44 43 42 42 41 40 39 39 38 37 36 36 35 36 35 34 35 37 36 36 37 38 37 37 36 34 34 35 36 37 37 38 39 39
45 44 41 40 39 38 39 40 42 40 40 39 38 36 35 35 35 34 35 34 32 37 35 36 37 37 36 35 36 35 33 34 35 36 37 39 40 39
44 42 40 38 38 36 34 34 34 34 37 38 37 36 34 34 35 33 33 34 32 34 36 33 35 33 35 34 36 34 33 33 34 35 36 38 39 41
43 41 39 38 37 35 35 35 33 32 31 32 35 36 37 36 36 35 34 33 33 34 33 31 33 31 33 36 36 33 32 32 33 34 35 37 38 39
42 40 38 38 35 35 34 35 35 32 33 33 33 33 33 34 34 33 32 30 29 32 31 30 31 31 34 35 35 33 32 32 33 33 34 36 37 38
39 39 37 37 36 37 38 36 33 31 32 32 32 33 34 34 32 33 32 28 28 29 30 28 30 31 30 35 35 33 31 31 32 33 33 34 35 35
38 38 37 35 35 37 36 34 33 32 32 33 33 34 34 34 33 33 31 30 27 27 30 30 30 31 31 31 34 32 32 30 30 31 32 33 33 33
37 35 34 33 34 34 35 33 33 32 32 33 33 33 32 32 31 33 31 32 32 30 31 30 30 30 30 30 30 29 31 30 30 30 31 30 31 33
35 34 33 32 32 30 30 30 33 33 33 32 32 30 30 31 31 33 34 34 33 33 31 30 31 31 32 29 29 29 27 29 29 30 29 30 30 30
33 32 31 32 31 29 29 31 34 34 33 31 31 30 31 31 31 30 32 33 33 31 31 30 30 29 28 31 29 28 28 26 28 28 28 27 28 30
31 30 31 29 28 30 32 32 32 32 31 30 30 29 29 28 28 30 29 28 26 25 25 30 30 29 28 28 28 28 27 26 26 27 26 24 26 28
30 30 29 29 30 31 31 31 32 31 30 30 29 29 28 28 27 27 26 26 24 26 27 28 30 30 29 26 29 28 26 25 26 25 25 22 23 26
30 30 30 31 31 31 31 31 30 30 30 29 28 29 28 27 27 27 25 24 26 26 25 26 28 29 23 20 24 30 25 24 23 22 23 22 21 24
32 31 31 31 31 31 31 31 29 29 29 30 29 28 27 27 26 25 24 24 25 24 23 24 27 25 23 22 22 25 29 25 23 22 21 23 24 26
31 31 32 32 31 31 30 30 30 30 31 29 28 30 28 26 25 24 23 24 23 23 22 26 27 26 25 23 21 22 26 29 28 24 24 22 20 20
32 32 32 31 31 32 32 32 31 31 30 29 28 30 28 26 25 24 26 23 22 23 27 28 28 26 22 21 21 22 23 26 28 29 28 27 24 18
32 32 33 32 32 31 31 30 29 29 29 28 29 29 28 26 24 24 23 22 23 26 26 26 25 25 24 23 24 23 22 22 22 21 23 26 25 25

GFSNE_sfc_30mbdewp_246.txt.gz
Dewpoint
63 63 63 63 62 61 59 56 54 48 43 47 45 46 45 43 42 41 41 41 41 40 40 38 39 40 40 40 41 41 39 38 38 38 39 40 41 42
64 64 63 63 62 60 59 57 56 55 50 47 45 44 44 42 42 41 41 42 39 38 38 38 39 40 40 41 41 40 39 36 37 38 39 39 40 40
65 64 64 64 61 60 59 56 55 54 52 46 45 44 41 41 41 41 40 39 38 38 39 39 39 39 40 40 39 38 37 35 36 37 38 38 38 39
64 64 64 63 61 59 57 55 53 52 51 48 42 41 41 41 40 38 38 37 36 38 37 38 38 39 39 38 37 37 36 35 34 36 35 37 37 37
64 64 64 60 60 56 56 54 53 52 49 46 41 41 40 40 38 37 37 35 36 36 36 36 37 38 38 37 37 36 36 35 33 34 34 34 34 35
64 64 63 59 59 55 54 53 52 49 47 42 41 39 38 37 36 35 33 34 33 36 35 35 37 38 36 36 36 36 35 34 33 33 33 33 33 34
61 61 60 57 57 55 54 52 49 47 45 42 40 37 37 35 35 35 33 33 33 34 33 33 36 34 34 34 36 36 34 33 32 33 34 33 33 33
58 56 54 54 54 53 52 50 50 46 43 41 40 37 36 35 34 33 33 31 29 33 33 32 33 31 32 33 36 35 33 32 32 32 32 34 34 34
56 53 51 51 50 50 49 48 47 45 44 41 39 38 36 35 34 33 33 32 31 32 31 30 31 29 31 33 36 34 33 32 31 31 32 34 34 34
54 52 51 48 49 47 46 44 43 42 42 41 39 36 35 35 34 33 33 31 32 31 30 28 29 28 30 33 35 32 32 30 30 30 31 32 33 34
50 50 49 47 45 44 43 39 36 35 37 37 36 36 35 35 35 33 30 29 29 30 29 27 27 28 29 32 34 31 31 29 29 29 29 31 33 34
43 44 44 44 41 42 39 36 33 33 33 34 34 34 34 34 33 32 30 28 27 28 29 27 27 30 27 27 30 29 29 28 28 27 28 30 32 32
41 40 40 40 41 38 37 35 33 34 33 32 32 32 32 32 31 31 30 28 26 26 28 29 28 30 28 28 30 26 28 27 27 26 27 28 30 32
39 38 38 38 36 36 35 33 33 33 33 32 32 31 31 31 31 31 30 30 28 27 30 30 29 29 27 26 26 26 27 25 26 26 26 27 27 29
36 37 36 36 35 34 33 33 33 33 32 32 32 31 31 31 32 31 32 31 31 31 31 29 28 29 27 26 25 24 23 23 24 26 26 26 27 28
35 35 35 35 34 33 32 33 33 33 33 32 31 31 31 31 30 32 30 31 30 30 30 29 28 28 26 25 24 22 22 21 24 25 26 26 27 28
35 34 34 33 32 32 32 32 32 32 32 31 31 30 31 31 31 32 31 31 27 27 27 28 29 27 27 26 21 22 21 22 23 24 23 23 25 28
34 34 33 32 32 31 31 31 31 31 31 31 31 31 30 30 28 29 28 26 24 24 27 27 27 26 25 23 25 21 21 21 23 23 23 21 22 26
34 33 31 31 31 31 31 31 30 31 32 32 31 30 29 28 27 26 26 24 23 22 26 27 28 26 17 17 22 27 21 22 21 21 21 22 22 24
33 31 31 31 31 31 31 31 31 31 31 31 30 29 28 27 26 27 24 22 22 24 23 23 21 19 17 18 19 24 27 23 21 20 20 22 24 26
32 32 31 31 32 31 31 31 31 31 31 31 30 29 28 26 26 26 23 22 23 22 20 21 22 23 22 21 19 20 23 27 24 21 20 19 19 20
32 31 32 32 31 31 31 31 31 31 31 30 29 28 27 26 26 24 22 23 25 22 22 23 22 21 20 19 18 18 19 22 25 26 27 24 20 16
32 32 32 31 31 31 31 31 31 30 30 28 28 27 26 25 24 23 23 27 25 23 23 22 23 22 20 19 18 18 19 20 20 20 22 24 24 25

GFSNE_sfc_30mbdewp_249.txt.gz
Dewpoint
63 63 62 62 62 62 61 59 58 56 49 45 46 47 47 47 46 44 42 42 41 40 41 41 39 40 41 41 41 42 40 39 39 38 39 40 41 41
64 64 63 63 63 62 61 61 60 59 56 48 48 48 48 46 45 43 41 42 41 39 38 38 39 40 40 40 41 41 38 38 37 37 37 38 39 39
64 64 63 64 63 63 62 61 60 60 59 53 49 48 46 45 44 43 43 41 40 38 39 39 39 39 39 40 40 38 38 36 36 35 36 37 37 38
64 64 64 64 63 63 62 61 60 60 59 54 47 46 45 45 43 41 40 38 37 38 37 39 37 38 39 38 37 37 36 35 35 34 34 34 35 35
65 64 63 64 63 63 62 60 59 59 58 54 47 45 43 43 41 39 38 36 36 37 37 35 37 39 37 37 36 35 35 35 34 33 33 33 33 33
65 64 64 64 63 63 60 59 58 55 53 51 46 44 42 41 40 37 35 35 33 36 35 35 37 37 35 35 35 37 35 33 33 32 32 32 33 33
64 64 64 64 62 62 60 58 56 54 50 47 44 40 38 38 39 36 35 34 34 34 33 33 35 32 32 33 35 36 34 33 32 32 32 32 33 34
61 59 59 59 59 58 58 57 55 53 49 47 45 43 40 39 37 35 33 32 30 33 33 32 32 29 31 32 36 34 33 32 30 30 31 31 31 33
58 57 56 55 55 55 53 54 52 50 50 49 45 43 39 37 36 34 33 32 31 31 31 30 31 28 30 33 36 32 31 30 30 30 30 31 32 33
54 55 55 53 52 52 51 48 45 45 46 44 43 40 39 38 36 35 33 32 31 30 30 28 29 28 28 33 33 30 30 29 29 28 29 31 31 32
47 49 51 51 50 49 47 42 38 37 38 38 37 36 36 35 35 33 31 31 31 30 29 27 27 28 29 29 32 28 28 28 28 28 28 29 30 31
43 45 47 47 46 46 42 37 35 33 34 34 34 34 35 35 34 33 32 31 30 28 29 27 27 29 27 26 29 26 26 26 27 27 28 28 30 30
41 41 41 43 43 43 39 37 35 34 33 33 32 32 32 32 32 32 32 32 29 27 29 29 28 29 28 26 27 24 26 24 26 27 27 28 29 29
40 39 39 40 40 37 36 34 34 34 33 32 32 31 31 31 31 31 32 30 29 28 29 30 29 28 26 24 24 24 24 23 25 27 27 27 27 28
39 38 37 37 36 34 34 34 34 34 33 32 32 32 32 31 31 31 31 31 31 30 29 29 29 27 25 23 23 21 22 22 24 25 26 26 26 27
36 35 35 35 35 33 33 34 34 34 33 33 32 31 31 30 30 31 29 30 28 27 29 29 28 26 23 22 21 20 21 21 23 23 23 25 26 27
34 33 33 33 32 32 32 32 33 33 33 32 31 30 30 30 30 31 30 30 28 25 25 26 26 26 25 22 20 20 20 21 22 23 22 22 24 26
34 33 32 32 32 32 31 31 32 32 32 31 31 30 30 30 30 31 30 27 27 26 25 25 25 25 22 23 24 20 20 20 22 22 22 21 22 26
35 33 33 32 32 32 31 31 31 31 31 31 31 31 31 30 30 29 26 24 24 27 27 27 27 24 17 16 22 26 20 21 20 21 22 22 22 24
35 34 33 33 32 32 32 31 30 31 31 31 31 31 30 28 27 26 24 22 23 23 22 21 21 18 17 16 18 23 26 21 19 19 20 21 24 27
34 33 33 32 32 32 32 31 31 31 31 31 31 30 29 28 26 24 23 23 22 21 20 20 21 22 21 19 17 18 23 27 26 22 20 18 18 20
33 33 32 33 32 32 31 31 31 31 31 31 30 30 29 27 24 23 23 21 21 21 21 21 21 20 18 17 16 17 18 22 25 25 25 23 17 16
33 32 32 32 32 31 31 31 31 31 31 31 30 28 28 26 24 24 25 22 22 21 21 21 20 19 18 18 17 17 18 19 19 19 23 25 25 25

GFSNE_sfc_30mbdewp_252.txt.gz
Dewpoint
63 63 63 63 62 62 61 61 60 58 56 53 50 48 49 50 50 50 48 45 41 42 41 41 43 41 41 41 41 41 42 41 40 39 39 39 39 40
64 63 63 63 63 63 62 61 61 60 58 58 51 48 49 49 49 47 44 44 44 42 41 41 40 40 40 41 41 41 39 39 38 38 37 37 38 39
64 64 63 64 63 63 63 62 62 61 59 59 51 49 48 47 47 47 47 46 44 42 39 39 39 39 39 40 40 38 38 37 36 35 35 36 36 37
64 64 64 63 63 64 63 62 62 62 60 59 50 47 47 47 47 47 45 44 41 40 39 38 38 38 39 38 38 37 36 36 35 34 34 34 34 35
64 64 64 63 63 63 63 63 62 61 60 59 51 47 46 48 45 45 43 40 40 40 38 38 37 38 37 37 36 36 36 35 34 33 32 32 32 32
64 64 64 64 63 63 62 62 61 59 57 56 49 46 44 44 44 41 37 37 36 37 37 36 38 36 35 34 35 37 36 34 33 31 32 32 32 31
61 63 64 64 63 63 62 61 59 58 53 52 47 43 41 40 41 41 39 35 36 36 35 34 35 33 32 33 36 34 33 32 31 31 31 32 31 31
56 58 59 60 60 59 57 59 59 58 53 51 48 46 44 43 42 39 35 34 33 34 33 33 33 30 32 34 35 32 31 31 30 30 30 31 31 31
51 53 54 55 55 55 56 53 52 53 52 52 50 47 44 41 40 37 35 34 32 32 32 31 31 30 32 35 33 31 30 29 30 29 29 29 29 31
48 48 50 52 53 53 52 50 46 45 48 49 49 45 42 40 39 38 35 31 30 31 32 30 31 31 31 33 32 29 28 28 28 28 28 29 29 31
44 46 46 48 50 50 49 44 38 36 37 39 40 40 39 39 36 34 32 32 31 30 31 31 29 29 31 30 28 27 27 27 27 28 28 28 29 30
42 43 45 45 47 47 45 41 39 35 35 35 35 35 35 35 35 35 33 32 31 30 30 29 29 29 27 28 29 26 26 26 27 27 28 28 29 29
40 40 42 43 44 44 43 41 39 34 34 34 33 33 33 33 33 34 34 33 32 28 30 29 29 29 28 26 26 25 25 25 27 27 27 27 28 29
40 40 40 41 42 41 39 36 34 34 33 33 32 32 31 31 31 31 31 31 31 30 31 30 29 28 25 24 24 24 24 25 25 25 27 27 27 27
39 39 39 39 38 36 36 34 34 34 33 32 31 31 31 31 31 30 31 30 29 30 30 29 28 26 25 24 22 21 22 23 25 24 26 26 26 28
37 36 35 35 35 34 33 33 34 34 34 33 31 30 31 30 29 30 28 28 27 27 28 28 27 23 22 22 21 21 22 21 23 23 25 25 26 27
35 33 33 33 32 32 32 33 33 34 33 31 30 30 29 29 29 30 29 27 25 24 23 25 25 24 23 21 21 21 21 21 23 23 23 23 25 27
34 33 32 32 32 31 31 31 33 33 32 31 30 29 29 29 29 30 29 26 24 23 23 23 23 22 21 24 24 20 21 21 22 23 23 21 22 26
35 33 33 32 32 32 32 32 32 32 32 31 30 30 30 30 30 29 28 26 25 24 24 25 27 21 17 17 22 23 20 21 21 21 23 22 22 24
35 34 33 33 33 32 32 32 32 31 31 31 31 31 31 30 29 27 26 26 26 25 24 25 24 19 18 17 19 24 23 20 20 20 21 23 25 25
34 34 34 33 33 33 32 32 31 31 31 31 31 31 30 29 27 26 25 24 22 21 21 20 20 21 21 19 18 20 25 26 24 20 20 19 19 20
34 34 34 34 33 32 32 31 31 31 31 31 30 30 30 28 25 24 23 22 21 21 21 21 21 19 18 16 16 18 19 23 25 25 25 21 18 17
33 34 33 33 33 32 32 31 31 31 31 31 30 30 28 25 25 23 23 22 21 20 20 19 19 18 18 17 17 17 18 19 20 21 23 25 25 25

GFSNE_sfc_30mbdewp_255.txt.gz
Dewpoint
64 64 64 63 64 64 63 63 58 56 58 60 57 54 54 55 55 54 55 49 48 45 45 45 46 45 42 42 42 42 42 41 41 40 40 39 39 39
65 64 64 64 64 64 63 63 63 61 59 60 61 56 52 51 52 53 53 47 45 43 45 45 44 43 41 41 41 41 40 39 38 38 38 37 38 38
59 63 63 63 63 64 64 63 63 62 59 60 61 56 53 52 51 52 50 48 47 45 44 42 42 40 39 39 40 39 38 37 36 36 35 35 36 37
56 54 52 52 61 62 63 63 63 63 61 59 59 54 52 51 50 49 48 48 47 45 44 41 40 39 39 38 38 37 37 36 35 35 34 33 34 35
57 55 54 57 62 63 63 63 63 62 62 61 59 49 47 48 47 47 45 43 43 43 41 39 39 39 38 37 36 37 36 35 34 33 32 33 33 33
63 62 63 63 63 63 63 63 63 62 61 60 53 48 46 46 47 42 39 40 40 39 39 39 39 38 37 36 38 35 34 34 32 32 32 32 32 32
58 60 62 64 64 64 63 63 62 61 58 57 51 46 44 43 44 42 39 37 36 38 37 38 38 36 35 36 36 35 34 33 31 31 31 31 31 31
54 55 56 57 58 57 56 55 56 59 57 55 52 49 47 45 42 41 36 34 34 36 35 34 35 33 34 37 34 33 31 30 31 31 31 31 30 31
49 51 52 53 54 55 55 54 51 51 54 56 53 51 48 45 43 39 37 37 35 34 34 31 34 32 34 34 31 30 29 29 29 30 30 29 30 31
47 48 49 50 52 53 53 52 49 46 47 51 54 52 49 45 43 41 38 33 32 33 34 31 32 31 32 33 29 28 28 28 29 29 29 29 30 30
42 44 47 48 49 48 49 48 43 39 38 42 45 46 44 43 40 37 34 34 31 30 32 32 30 30 31 31 29 28 27 28 28 28 28 29 30 31
41 42 42 43 45 45 47 45 43 40 37 39 38 38 39 37 37 39 36 35 31 30 31 29 30 31 28 31 31 30 29 27 27 27 28 29 30 31
40 40 41 41 42 44 44 44 43 37 35 35 34 34 34 34 35 35 35 34 33 30 32 31 30 32 31 29 28 29 29 28 28 29 29 29 29 30
40 40 42 41 41 41 41 40 37 35 34 33 33 32 32 32 32 32 32 32 32 31 32 32 31 30 28 28 27 28 28 28 28 29 30 29 29 30
40 41 39 38 39 38 37 36 34 35 34 33 32 32 32 31 31 30 30 30 30 30 30 30 30 31 29 27 26 27 28 27 28 28 29 29 29 29
38 39 37 36 35 35 33 33 35 35 35 34 32 31 31 31 30 30 28 28 26 27 27 27 27 27 27 26 26 26 26 26 26 28 27 28 29 29
37 35 35 35 34 33 32 33 34 34 34 32 30 30 29 29 29 29 28 28 25 25 25 26 26 26 27 26 25 25 25 25 25 26 26 25 27 28
34 34 34 34 34 33 32 32 33 33 32 32 31 30 29 28 28 29 28 26 25 24 25 26 26 25 24 24 25 24 24 24 25 26 26 23 24 26
34 35 35 34 33 33 32 32 32 33 33 32 30 29 29 28 29 28 27 25 25 25 25 26 25 24 22 20 23 24 23 24 23 23 24 24 23 25
35 35 35 35 34 33 33 32 32 32 32 31 31 30 30 29 29 28 27 26 25 24 25 27 24 22 22 22 21 23 24 23 23 22 23 23 25 25
34 35 36 35 34 34 33 33 32 32 32 31 31 31 31 31 29 29 28 26 25 24 24 24 22 22 22 23 22 23 24 25 24 22 22 21 20 21
35 35 35 36 35 34 33 32 32 31 31 31 31 31 31 31 29 29 27 25 24 23 23 22 22 21 20 20 20 21 22 25 25 25 25 24 21 19
34 35 35 35 35 34 33 32 32 31 31 31 31 31 30 29 29 28 26 24 23 22 21 21 20 20 19 19 19 20 21 22 21 21 24 24 24 24